sat.trackr.live / text

‹ back to catalog

STARLINK-36638

NORAD 67594 · 2026-018F

PAYLOAD ACTIVE UNKNOWN

§ Identity

Operator
Country
US
Launch date
2026-01-29
Launch site
AFWTR
Launch vehicle
Mass (kg)
RCS (m²)

Purposes: comms

External: N2YO · Heavens-Above · Gunter

§ Orbital elements

Epoch: 2026-05-25T02:47:20.330592Z

Period
93.91 min
Inclination
97.2836°
Eccentricity
0.0000995
Mean motion
15.33454207 rev/d
Perigee alt
464.8 km
Apogee alt
466.2 km
Semi-major
6,843.7 km
B*
6.5586e-4
RAAN
210.1970°
Arg perigee
82.1176°
Mean anomaly
278.0180°
Rev number
1,904

§ Raw data

STARLINK-366381 67594U 26018F   26145.11620753  .00021164  00000+0  65586-3 0  99972 67594  97.2836 210.1970 0000995  82.1176 278.0180 15.33454207 19040

JSON: /api/v1/satellites/67594 · /tle

For live sub-satellite position, see the globe view (requires WebGL).

§ Visibility from observer

Set your observer location to see the next 7 days of passes ≥ 10°. The values pass through the URL so the page stays shareable.

No JS? Fill the form by hand. The geolocation button needs JavaScript.